Beeville, TX

5:25 AM CDT on April 28, 2017 (GMT -0500)
Beeville

Weather History for KBEA - January, 2013

Change the Weather History Date:

Thursday, January 24, 2013

  Actual Average (KCRP) Record (KCRP)
Temperature  
Mean Temperature 68 °F -  
Max Temperature 82 °F 67 °F 87 °F (1972)
Min Temperature 55 °F 47 °F 18 °F (1963)
Cooling Degree Days 4    
Growing Degree Days 18 (Base 50)    
Moisture  
Dew Point 60 °F    
Average Humidity 84    
Maximum Humidity 100    
Minimum Humidity 35    
Precipitation  
Precipitation 0.00 in - - ()
Sea Level Pressure  
Sea Level Pressure 30.21 in    
Wind  
Wind Speed 6 mph (South)    
Max Wind Speed 15 mph    
Max Gust Speed 21 mph    
Visibility 7 miles    
Events Fog    
Averages and records for this station are not official NWS values.
T = Trace of Precipitation, MM = Missing Value Source: NWS Daily Summary

Daily Weather History Graph

Daily Weather History Graph

Search for Another Location

Airport or City:

Trip Planner

Search our weather history database for the weather conditions in past years. The results will help you decide how hot, cold, wet, or windy it might be!

Date:

Astronomy

Jan. 24, 2013 Rise Set
Actual Time 7:22 AM CST 6:04 PM CST
Civil Twilight 6:57 AM CST 6:29 PM CST
Nautical Twilight 6:28 AM CST 6:58 PM CST
Astronomical Twilight 6:00 AM CST 7:26 PM CST
Moon 4:10 PM CST (1/24) 5:17 AM CST (1/24)
Length of Visible Light 11h 32m
Length of Day
10h 42m
Waxing Gibbous, 94% of the Moon is Illuminated
Jan 24
Waxing Gibbous
Jan 26
Full
Feb 3
Last Quarter
Feb 10
New
Feb 17
First Quarter

Hourly Weather History & Observations

Time (CST) Temp. Heat Index Dew Point Humidity Pressure Visibility Wind Dir Wind Speed Gust Speed Precip Events Conditions
12:15 AM 59.0 °F - 59.0 °F 100% 30.25 in 5.0 mi SSE 4.6 mph - N/A   Clear
12:55 AM 59.0 °F - 59.0 °F 100% 30.25 in 10.0 mi South 3.5 mph - N/A   Clear
1:35 AM 59.0 °F - 59.0 °F 100% 30.25 in 10.0 mi SSW 4.6 mph - N/A   Clear
2:15 AM 57.2 °F - 57.2 °F 100% 30.25 in 5.0 mi South 5.8 mph - N/A   Clear
2:35 AM 57.2 °F - 57.2 °F 100% 30.24 in 7.0 mi South 5.8 mph - N/A   Clear
2:55 AM 57.2 °F - 57.2 °F 100% 30.24 in 7.0 mi South 5.8 mph - N/A   Clear
3:15 AM 59.0 °F - 59.0 °F 100% 30.23 in 7.0 mi South 5.8 mph - N/A   Clear
3:35 AM 59.0 °F - 59.0 °F 100% 30.23 in 7.0 mi Calm Calm - N/A   Clear
3:55 AM 59.0 °F - 59.0 °F 100% 30.23 in 7.0 mi SSW 3.5 mph - N/A   Clear
4:15 AM 59.0 °F - 59.0 °F 100% 30.23 in 0.8 mi South 3.5 mph - N/A   Mist
4:35 AM 55.4 °F - 55.4 °F 100% 30.22 in 0.2 mi SSE 5.8 mph - N/A Fog Fog
4:55 AM 55.4 °F - 55.4 °F 100% 30.23 in 0.2 mi Calm Calm - N/A Fog Fog
5:15 AM 55.4 °F - 55.4 °F 100% 30.23 in 0.2 mi Calm Calm - N/A Fog Fog
5:35 AM 55.4 °F - 55.4 °F 100% 30.23 in 0.2 mi Calm Calm - N/A Fog Fog
5:55 AM 55.4 °F - 55.4 °F 100% 30.24 in 0.2 mi Calm Calm - N/A Fog Fog
6:15 AM 57.2 °F - 57.2 °F 100% 30.25 in 0.2 mi Calm Calm - N/A Fog Fog
6:35 AM 57.2 °F - 57.2 °F 100% 30.25 in 0.2 mi Calm Calm - N/A Fog Fog
7:15 AM 59.0 °F - 59.0 °F 100% 30.25 in 0.2 mi Calm Calm - N/A Fog Fog
7:55 AM 59.0 °F - 59.0 °F 100% 30.25 in 0.2 mi South 3.5 mph - N/A   Light Drizzle
8:15 AM 59.0 °F - 59.0 °F 100% 30.26 in 0.2 mi SSW 3.5 mph - N/A   Light Drizzle
8:35 AM 59.0 °F - 59.0 °F 100% 30.27 in 0.2 mi South 4.6 mph - N/A   Light Drizzle
8:55 AM 59.0 °F - 59.0 °F 100% 30.28 in 0.2 mi SSW 3.5 mph - N/A   Light Drizzle
9:15 AM 60.8 °F - 60.8 °F 100% 30.28 in 0.2 mi Calm Calm - N/A Fog Fog
9:35 AM 60.8 °F - 60.8 °F 100% 30.29 in 0.2 mi SSW 4.6 mph - N/A Fog Fog
9:55 AM 62.6 °F - 62.6 °F 100% 30.30 in 0.8 mi SSW 4.6 mph - N/A   Overcast
10:15 AM 62.6 °F - 62.6 °F 100% 30.30 in 7.0 mi SSW 9.2 mph - N/A   Overcast
10:35 AM 62.6 °F - 62.6 °F 100% 30.30 in 10.0 mi South 10.4 mph - N/A   Overcast
10:55 AM 64.4 °F - 64.4 °F 100% 30.30 in 10.0 mi South 10.4 mph - N/A   Overcast
11:15 AM 64.4 °F - 64.4 °F 100% 30.28 in 10.0 mi SSW 8.1 mph - N/A   Overcast
11:35 AM 68.0 °F - 62.6 °F 83% 30.27 in 10.0 mi SSW 12.7 mph - N/A   Mostly Cloudy
11:55 AM 71.6 °F - 62.6 °F 73% 30.26 in 10.0 mi SSW 13.8 mph - N/A   Scattered Clouds
12:15 PM 73.4 °F - 62.6 °F 69% 30.24 in 10.0 mi South 15.0 mph - N/A   Clear
12:55 PM 77.0 °F - 60.8 °F 57% 30.21 in 10.0 mi SSW 13.8 mph 19.6 mph N/A   Clear
1:15 PM 77.0 °F - 60.8 °F 57% 30.19 in 10.0 mi South 10.4 mph - N/A   Clear
1:35 PM 78.8 °F - 60.8 °F 54% 30.18 in 10.0 mi South 13.8 mph - N/A   Clear
1:55 PM 78.8 °F - 60.8 °F 54% 30.17 in 10.0 mi SSW 10.4 mph 19.6 mph N/A   Clear
2:15 PM 80.6 °F 80.8 °F 57.2 °F 45% 30.16 in 10.0 mi South 12.7 mph - N/A   Clear
2:35 PM 80.6 °F 80.5 °F 55.4 °F 42% 30.15 in 10.0 mi South 10.4 mph - N/A   Clear
2:55 PM 80.6 °F 80.5 °F 55.4 °F 42% 30.14 in 10.0 mi SSW 10.4 mph - N/A   Clear
3:15 PM 82.4 °F 81.7 °F 55.4 °F 39% 30.14 in 10.0 mi SSW 9.2 mph 18.4 mph N/A   Clear
3:35 PM 82.4 °F - 51.8 °F 35% 30.13 in 10.0 mi South 8.1 mph 17.3 mph N/A   Clear
3:55 PM 82.4 °F 81.4 °F 53.6 °F 37% 30.13 in 10.0 mi South 11.5 mph - N/A   Clear
4:15 PM 82.4 °F 81.4 °F 53.6 °F 37% 30.13 in 10.0 mi South 11.5 mph - N/A   Clear
4:35 PM 82.4 °F 81.4 °F 53.6 °F 37% 30.13 in 10.0 mi SSW 10.4 mph - N/A   Clear
4:55 PM 80.6 °F 81.5 °F 60.8 °F 51% 30.13 in 10.0 mi SE 11.5 mph - N/A   Clear
5:35 PM 77.0 °F - 62.6 °F 61% 30.13 in 10.0 mi SE 11.5 mph - N/A   Clear
5:55 PM 73.4 °F - 60.8 °F 65% 30.13 in 10.0 mi SE 12.7 mph - N/A   Clear
6:15 PM 71.6 °F - 62.6 °F 73% 30.14 in 10.0 mi SE 10.4 mph 18.4 mph N/A   Clear
6:35 PM 69.8 °F - 62.6 °F 78% 30.14 in 10.0 mi SE 12.7 mph - N/A   Clear
7:15 PM 68.0 °F - 60.8 °F 78% 30.16 in 10.0 mi ESE 5.8 mph - N/A   Clear
7:35 PM 66.2 °F - 60.8 °F 83% 30.16 in 10.0 mi SE 6.9 mph - N/A   Clear
7:55 PM 64.4 °F - 60.8 °F 88% 30.16 in 10.0 mi SE 8.1 mph - N/A   Clear
8:15 PM 64.4 °F - 60.8 °F 88% 30.16 in 10.0 mi SE 6.9 mph - N/A   Clear
8:35 PM 64.4 °F - 60.8 °F 88% 30.16 in 10.0 mi SSE 11.5 mph - N/A   Clear
8:55 PM 64.4 °F - 62.6 °F 94% 30.16 in 10.0 mi SSE 15.0 mph 20.7 mph N/A   Clear
9:15 PM 64.4 °F - 62.6 °F 94% 30.16 in 10.0 mi SSE 11.5 mph - N/A   Clear
9:35 PM 64.4 °F - 62.6 °F 94% 30.16 in 10.0 mi SSE 12.7 mph 18.4 mph N/A   Clear
10:15 PM 64.4 °F - 62.6 °F 94% 30.16 in 10.0 mi South 13.8 mph 17.3 mph N/A   Clear
10:35 PM 64.4 °F - 62.6 °F 94% 30.17 in 10.0 mi South 9.2 mph - N/A   Clear
10:55 PM 62.6 °F - 62.6 °F 100% 30.17 in 10.0 mi South 9.2 mph - N/A   Clear
11:15 PM 62.6 °F - 62.6 °F 100% 30.17 in 10.0 mi South 10.4 mph - N/A   Clear
11:35 PM 62.6 °F - 62.6 °F 100% 30.16 in 10.0 mi South 11.5 mph - N/A   Clear
11:55 PM 64.4 °F - 64.4 °F 100% 30.16 in 10.0 mi South 11.5 mph - N/A   Clear